Weather in Kolymvari

Greece     35°32′20″N   23°46′58″E
temp.,
°C
wind,
m/s
gust,
m/s
humid.,
%
clouds,
%
prec.,
mm/h
press.,
hPa
HPBL,
m
6 march, sat
sat623:00+11ssw346561 0.0 1022146
02:00+12s444281 0.0 102279
05:00+12s2354100 0.0 102158
08:00+13s335096 0.0 102190
11:00+18sw04390 0.0 10221026
14:00+19w14380 0.0 1021975
17:00+17nne02500 0.0 1020499
20:00+13sse12630 0.0 102140
7 march, sun
sun723:00+12ssw116016 0.0 102228
02:00+11sse11638 0.0 102128
05:00+11ese12570 0.0 102145
08:00+12e23620 0.0 1021144
11:00+16ne66688 0.0 1022794
14:00+15ene677222 0.0 1021774
17:00+12ene788488 0.1 1020616
20:00+11ene678485 0.1 1021567
8 march, mon
mon823:00+10ene468821 0.0 1021325
02:00+10e358710 0.0 1020264
05:00+9e35870 0.0 1018198
08:00+11ese34789 0.0 1018198
11:00+15ne136059 0.0 1019825
14:00+15ne336477 0.0 1017692
17:00+13ene557398 0.0 1016442
20:00+12e448199 0.0 1016197
9 march, tue
tue923:00+11ese2382100 0.0 1015127
02:00+11ese2378100 0.0 1014123
05:00+11e4585100 0.0 1013211
08:00+12ene588388 0.0 1013424
11:00+15ene786964 0.0 1014735
14:00+15ene786942 0.0 1013705
17:00+14ene687423 0.0 1012624
20:00+11ene588057 0.0 1014445
10 march, wed
wed1023:00+10ene468545 0.0 1014298
02:00+10ene468423 0.0 1014267
05:00+10e35872 0.0 1013222
08:00+12e34791 0.0 1014243
11:00+16ne43630 0.0 1015627
14:00+16n43620 0.0 1014597
17:00+15wnw34600 0.0 1013498
20:00+12wsw46820 0.0 1014321